DW0148 Weather Reports


time (UTC)temp
C
wind
direction
speed
KPH
gust
KPH
rain 1hr
cm
rain 24hr
cm
rain mn
cm
humidity
%
barometer
mb
20260504070354 6 115 0.0 0.0 0.00 0.00 0.00 92 1016.3
20260504060132 7 114 0.0 1.6 0.00 0.00 0.00 90 1016.3
20260504050517 7 194 0.0 1.6 0.00 0.00 0.00 90 1016.3
20260504045944 7 194 0.0 0.0 0.00 0.00 0.00 90 1016.3
20260504045442 7 194 0.0 0.0 0.00 0.00 0.00 89 1016.3
20260504044941 7 194 0.0 0.0 0.00 0.00 0.00 89 1016.3
20260504044440 7 194 0.0 0.0 0.00 0.00 0.00 89 1016.3
20260504043938 7 194 0.0 0.0 0.00 0.00 0.00 89 1016.3
20260504043436 7 194 0.0 0.0 0.00 0.00 0.00 88 1016.3
20260504042932 7 194 0.0 0.0 0.00 0.00 0.00 88 1016.3
20260504042432 7 194 0.0 0.0 0.00 0.00 0.00 87 1016.3
20260504041931 7 194 0.0 0.0 0.00 0.00 0.00 86 1016.3
20260504041325 7 194 0.0 0.0 0.00 0.00 0.00 86 1016.3
20260504040824 7 194 0.0 0.0 0.00 0.00 0.00 86 1016.3
20260504040322 7 194 0.0 0.0 0.00 0.00 0.00 85 1016.3
20260504035821 7 194 0.0 0.0 0.00 0.00 0.00 86 1016.3
20260504035317 7 195 0.0 0.0 0.00 0.00 0.00 86 1016.3
20260504034816 7 194 0.0 0.0 0.00 0.00 0.00 86 1016.3
20260504034315 7 194 0.0 0.0 0.00 0.00 0.00 86 1016.3
20260504033813 8 194 0.0 0.0 0.00 0.00 0.00 86 1016.3
20260504033240 8 195 0.0 0.0 0.00 0.00 0.00 86 1016.3
20260504032706 8 194 0.0 0.0 0.00 0.00 0.00 86 1015.9
20260504032205 8 194 0.0 0.0 0.00 0.00 0.00 85 1016.3
20260504031704 8 194 0.0 0.0 0.00 0.00 0.00 85 1015.9
20260504031131 8 194 0.0 0.0 0.00 0.00 0.00 84 1015.9
20260504030528 8 194 0.0 0.0 0.00 0.00 0.00 84 1015.9
20260504030025 8 194 0.0 0.0 0.00 0.00 0.00 84 1015.9
20260504025350 8 194 0.0 0.0 0.00 0.00 0.00 84 1015.9
20260504024817 8 194 0.0 0.0 0.00 0.00 0.00 83 1015.9
20260504024317 9 194 0.0 0.0 0.00 0.00 0.00 84 1015.6
20260504023816 9 194 0.0 0.0 0.00 0.03 0.00 84 1015.6
20260504023315 9 194 0.0 0.0 0.00 0.03 0.00 84 1015.6
20260504022814 9 194 0.0 0.0 0.00 0.03 0.00 84 1015.6
20260504022313 9 194 0.0 0.0 0.00 0.03 0.00 84 1015.6
20260504021812 9 194 0.0 0.0 0.00 0.03 0.00 84 1015.6
20260504021309 9 194 0.0 0.0 0.00 0.03 0.00 84 1015.2
20260504020808 10 194 0.0 0.0 0.00 0.03 0.00 83 1015.2
20260504020307 10 194 0.0 0.0 0.00 0.03 0.00 83 1015.2
20260504015806 10 194 0.0 0.0 0.00 0.03 0.00 83 1015.2
20260504015304 10 194 0.0 0.0 0.00 0.05 0.00 83 1015.2
20260504014803 10 194 0.0 0.0 0.00 0.08 0.00 83 1015.2
20260504014301 10 194 0.0 0.0 0.00 0.10 0.00 82 1015.2
20260504013800 10 194 0.0 0.0 0.00 0.13 0.00 82 1015.2
20260504013259 10 194 0.0 0.0 0.00 0.13 0.00 82 1015.2
20260504012758 10 194 0.0 0.0 0.00 0.13 0.00 82 1015.2
20260504012257 11 194 0.0 0.0 0.00 0.13 0.00 82 1015.2
20260504011756 11 194 0.0 0.0 0.00 0.13 0.00 81 1015.2
20260504011254 11 194 0.0 0.0 0.00 0.13 0.00 81 1015.2
20260504010753 11 194 0.0 0.0 0.00 0.13 0.00 80 1015.2
20260504010252 11 194 0.0 0.0 0.00 0.13 0.00 79 1015.2
20260504005751 12 194 0.0 0.0 0.00 0.13 0.00 78 1015.2
20260504005218 12 194 0.0 1.6 0.00 0.13 0.00 78 1015.2
20260504004717 12 194 0.0 1.6 0.00 0.13 0.00 77 1015.2
20260504004215 13 194 0.0 1.6 0.00 0.13 0.00 76 1014.9
20260504003714 13 194 0.0 1.6 0.00 0.13 0.00 75 1014.9
20260504003213 13 201 1.6 1.6 0.00 0.13 0.00 74 1014.9
20260504002711 13 207 0.0 0.0 0.00 0.13 0.00 72 1014.9
20260504002139 14 209 0.0 1.6 0.00 0.13 0.00 70 1014.9
20260504001637 15 208 0.0 1.6 0.00 0.13 0.00 69 1014.9
20260504001033 15 208 0.0 1.6 0.00 0.13 0.00 67 1014.9
20260504000532 15 208 0.0 1.6 0.00 0.13 0.00 64 1014.9
20260504000031 16 208 0.0 1.6 0.00 0.13 0.00 62 1014.9
20260503235530 16 208 0.0 1.6 0.00 0.13 0.00 58 1014.9
20260503234958 16 208 0.0 1.6 0.00 0.13 0.00 57 1014.9
20260503234354 16 209 0.0 1.6 0.00 0.13 0.00 55 1014.9
20260503233853 17 208 0.0 1.6 0.00 0.13 0.00 54 1014.9
20260503233352 17 208 1.6 1.6 0.00 0.13 0.00 53 1014.9
20260503232849 17 233 0.0 8.0 0.00 0.13 0.00 52 1015.2
20260503232349 17 182 1.6 8.0 0.00 0.13 0.00 50 1015.2
20260503231815 17 212 0.0 9.7 0.00 0.13 0.00 50 1015.2
20260503231314 18 116 3.2 9.7 0.00 0.13 0.00 47 1015.2
20260503230742 18 142 1.6 4.8 0.00 0.13 0.00 47 1015.2
20260503230240 18 255 3.2 4.8 0.00 0.13 0.00 46 1015.2
20260503225739 18 199 1.6 9.7 0.00 0.13 0.00 46 1015.2
20260503225237 18 182 1.6 9.7 0.00 0.13 0.00 45 1015.2
20260503224737 18 282 1.6 9.7 0.00 0.13 0.00 44 1015.2
20260503224236 18 241 4.8 9.7 0.00 0.13 0.00 44 1015.2
20260503223704 18 227 3.2 11.3 0.00 0.13 0.00 44 1015.6
20260503223202 18 205 1.6 12.9 0.00 0.13 0.00 45 1015.6
20260503222701 18 249 1.6 12.9 0.00 0.13 0.00 44 1015.6
20260503222200 18 233 4.8 9.7 0.00 0.13 0.00 44 1015.6
20260503221556 18 230 3.2 9.7 0.00 0.13 0.00 44 1015.6
20260503221055 18 229 1.6 6.4 0.00 0.13 0.00 43 1015.6
20260503220554 18 241 3.2 6.4 0.00 0.13 0.00 44 1015.6
20260503220053 18 145 1.6 6.4 0.00 0.13 0.00 44 1015.9
20260503215552 18 272 3.2 6.4 0.00 0.13 0.00 44 1015.9
20260503215052 18 220 3.2 6.4 0.00 0.13 0.00 44 1015.9
20260503214518 19 250 3.2 9.7 0.00 0.13 0.00 42 1015.9
20260503214017 19 179 1.6 9.7 0.00 0.13 0.00 44 1015.9
20260503213517 19 246 1.6 11.3 0.00 0.13 0.00 41 1015.9
20260503213016 20 243 4.8 11.3 0.00 0.13 0.00 40 1015.9
20260503212514 20 258 3.2 9.7 0.00 0.13 0.00 39 1015.9
20260503212014 20 280 3.2 9.7 0.00 0.13 0.00 39 1016.3
20260503211441 20 141 3.2 4.8 0.00 0.13 0.00 43 1016.3
20260503210940 20 98 3.2 4.8 0.00 0.13 0.00 38 1016.3
20260503210439 20 327 3.2 6.4 0.00 0.13 0.00 39 1016.3
20260503205937 20 229 3.2 8.0 0.00 0.13 0.00 42 1016.3
20260503205435 20 134 1.6 8.0 0.00 0.13 0.00 40 1016.3
20260503204935 20 231 1.6 11.3 0.00 0.13 0.00 41 1016.3
20260503204402 20 316 3.2 11.3 0.00 0.13 0.00 41 1016.3
20260503203901 20 160 1.6 11.3 0.00 0.13 0.00 42 1016.6
20260503203327 19 233 4.8 11.3 0.00 0.13 0.00 41 1016.6
20260503202826 19 86 4.8 12.9 0.00 0.13 0.00 41 1016.6
20260503202325 19 260 3.2 12.9 0.00 0.13 0.00 39 1016.9
20260503201823 19 253 1.6 12.9 0.00 0.13 0.00 40 1016.9
20260503201322 19 242 4.8 12.9 0.00 0.13 0.00 39 1016.9
20260503200821 19 236 1.6 8.0 0.00 0.13 0.00 42 1017.3
20260503200320 19 113 3.2 8.0 0.00 0.13 0.00 43 1017.3
20260503195819 19 41 3.2 9.7 0.00 0.13 0.00 38 1017.3
20260503195317 18 6 1.6 9.7 0.00 0.13 0.00 42 1017.6
20260503194816 18 106 3.2 9.7 0.00 0.13 0.00 39 1017.6
20260503194243 18 86 3.2 9.7 0.00 0.13 0.00 39 1017.6
20260503193742 19 239 3.2 9.7 0.00 0.13 0.00 40 1017.6
20260503193241 19 176 3.2 9.7 0.00 0.13 0.00 43 1017.6
20260503192709 19 15 3.2 11.3 0.00 0.13 0.00 41 1017.9
20260503192208 18 220 4.8 11.3 0.00 0.13 0.00 46 1017.9
20260503191706 18 180 3.2 9.7 0.00 0.13 0.00 43 1017.9
20260503191205 18 211 3.2 9.7 0.00 0.13 0.00 41 1018.3
20260503190705 18 315 3.2 9.7 0.00 0.13 0.00 43 1018.3
20260503190203 18 79 1.6 9.7 0.00 0.13 0.00 45 1018.3
20260503185702 18 192 3.2 9.7 0.00 0.13 0.00 46 1018.3
20260503185201 18 122 3.2 8.0 0.00 0.13 0.00 46 1018.3
20260503184700 17 143 1.6 9.7 0.00 0.13 0.00 48 1018.3
20260503184159 17 218 3.2 9.7 0.00 0.13 0.00 46 1018.6
20260503183555 17 82 1.6 9.7 0.00 0.13 0.00 44 1018.6
20260503183054 17 177 3.2 9.7 0.00 0.13 0.00 45 1018.6
20260503182522 17 224 3.2 8.0 0.00 0.13 0.00 44 1019.0
20260503182021 17 266 1.6 8.0 0.00 0.13 0.00 47 1019.0
20260503181520 17 289 1.6 9.7 0.00 0.13 0.00 46 1019.0
20260503181019 17 190 4.8 11.3 0.00 0.13 0.00 45 1019.0
20260503180518 17 207 3.2 11.3 0.00 0.13 0.00 46 1019.0
20260503180017 17 245 1.6 11.3 0.00 0.13 0.00 46 1019.3
20260503175516 17 204 3.2 8.0 0.00 0.13 0.00 42 1019.3
20260503175015 17 229 1.6 8.0 0.00 0.13 0.00 44 1019.3
20260503174514 16 175 3.2 8.0 0.00 0.13 0.00 44 1019.3
20260503173942 17 176 4.8 8.0 0.00 0.13 0.00 42 1019.6
20260503173410 16 242 1.6 9.7 0.00 0.13 0.00 46 1019.6
20260503172909 16 183 1.6 9.7 0.00 0.13 0.00 46 1019.6
20260503172408 16 153 3.2 9.7 0.00 0.13 0.00 48 1019.6
20260503171907 16 182 4.8 9.7 0.00 0.13 0.00 45 1020.0
20260503171406 16 188 3.2 8.0 0.00 0.13 0.00 44 1020.0
20260503170905 16 213 4.8 8.0 0.00 0.13 0.00 46 1020.0
20260503170404 16 206 1.6 6.4 0.00 0.13 0.00 46 1020.0
20260503150522 13 45 1.6 4.8 0.00 0.13 0.13 55 1021.0
20260503131209 8 76 1.6 3.2 0.00 0.13 0.13 95 1021.0
20260503130635 7 16 1.6 3.2 0.00 0.13 0.13 95 1021.0
20260503130134 7 28 3.2 3.2 0.00 0.13 0.13 95 1021.0
20260503120116 4 77 0.0 1.6 0.00 0.13 0.13 95 1020.7
20260503110530 2 77 0.0 0.0 0.00 0.13 0.13 95 1019.6
20260503081337 4 77 0.0 0.0 0.00 0.13 0.13 95 1018.3
20260503080804 4 77 0.0 0.0 0.00 0.13 0.13 95 1018.3
20260503080303 4 77 0.0 0.0 0.00 0.13 0.13 95 1018.3
20260503072753 4 77 0.0 0.0 0.00 0.13 0.13 95 1017.9